Location: Herksen
(52.4316°N, 6.1319°E)
Time: 08:11:43
(UTC+00:00)

Cosmos 1842 - Pass Details

Date: 15 May 2026
Orbit: 395 x 399 km, 82.5° (Epoch: 5 June)

Event Time Altitude Azimuth Distance (km) Brightness Sun altitude
Exits shadow 21:57:16 28° 108° (ESE) 785 3.7 -15.6°
Maximum altitude 21:57:39 29° 93° (E) 766 3.8 -15.7°
Drops below altitude 10° 22:00:26 10° 31° (NNE) 1,453 6.0 -15.8°
Sets 22:02:36 0° 20° (NNE) 2,316 7.3 -15.9°
